| time (UTC) | temp C | wind direction | speed KPH | gust KPH | rain 1hr cm | rain 24hr cm | rain mn cm | humidity % | barometer mb |
| 20260503184634 | 13 | 293 | 12.9 | 22.5 | 0.03 | 0.53 | 0.46 | 47 | 1014.5 |
| 20260503184143 | 13 | 279 | 8.0 | 19.3 | 0.03 | 0.53 | 0.46 | 46 | 1014.6 |
| 20260503183635 | 12 | 304 | 9.7 | 24.1 | 0.03 | 0.53 | 0.46 | 44 | 1014.6 |
| 20260503183123 | 12 | 284 | 12.9 | 30.6 | 0.03 | 0.53 | 0.46 | 41 | 1014.7 |
| 20260503182619 | 12 | 257 | 17.7 | 40.2 | 0.03 | 0.53 | 0.46 | 42 | 1014.8 |
| 20260503182134 | 12 | 270 | 19.3 | 32.2 | 0.03 | 0.53 | 0.46 | 44 | 1014.8 |
| 20260503181623 | 13 | 18 | 11.3 | 22.5 | 0.00 | 0.51 | 0.43 | 44 | 1014.6 |
| 20260503181119 | 12 | 307 | 11.3 | 27.4 | 0.00 | 0.51 | 0.43 | 42 | 1014.7 |
| 20260503180652 | 12 | 293 | 17.7 | 29.0 | 0.00 | 0.51 | 0.43 | 43 | 1014.8 |
| 20260503180125 | 12 | 288 | 17.7 | 32.2 | 0.03 | 0.51 | 0.43 | 48 | 1015.0 |
| 20260503175619 | 12 | 255 | 16.1 | 32.2 | 0.03 | 0.51 | 0.43 | 48 | 1014.9 |
| 20260503175133 | 12 | 233 | 16.1 | 30.6 | 0.03 | 0.51 | 0.43 | 46 | 1015.1 |
| 20260503174642 | 12 | 220 | 17.7 | 30.6 | 0.03 | 0.51 | 0.43 | 45 | 1015.0 |
| 20260503174157 | 12 | 246 | 16.1 | 33.8 | 0.03 | 0.51 | 0.43 | 45 | 1015.1 |
| 20260503173621 | 12 | 275 | 17.7 | 33.8 | 0.03 | 0.51 | 0.43 | 47 | 1015.1 |
| 20260503173135 | 12 | 243 | 16.1 | 27.4 | 0.03 | 0.51 | 0.43 | 45 | 1015.0 |
| 20260503172624 | 12 | 212 | 14.5 | 35.4 | 0.03 | 0.51 | 0.43 | 46 | 1015.0 |
| 20260503172118 | 12 | 232 | 25.7 | 35.4 | 0.03 | 0.51 | 0.43 | 44 | 1015.0 |
| 20260503171633 | 12 | 314 | 9.7 | 38.6 | 0.03 | 0.51 | 0.43 | 49 | 1015.1 |
| 20260503171142 | 11 | 241 | 17.7 | 38.6 | 0.03 | 0.51 | 0.43 | 50 | 1015.1 |
| 20260503170634 | 11 | 300 | 14.5 | 32.2 | 0.03 | 0.51 | 0.43 | 47 | 1015.1 |
| 20260503170120 | 11 | 289 | 16.1 | 32.2 | 0.03 | 0.48 | 0.41 | 47 | 1015.3 |
| 20260503160155 | 10 | 279 | 11.3 | 30.6 | 0.03 | 0.46 | 0.38 | 49 | 1015.9 |
| 20260503150638 | 8 | 306 | 11.3 | 24.1 | 0.05 | 0.43 | 0.36 | 50 | 1016.2 |
| 20260503150132 | 8 | 222 | 14.5 | 27.4 | 0.05 | 0.43 | 0.36 | 51 | 1016.2 |
| 20260503140132 | 7 | 255 | 9.7 | 24.1 | 0.08 | 0.41 | 0.30 | 57 | 1016.3 |
| 20260503131119 | 6 | 272 | 6.4 | 29.0 | 0.10 | 0.33 | 0.23 | 66 | 1016.5 |
| 20260503130653 | 6 | 272 | 11.3 | 32.2 | 0.13 | 0.33 | 0.23 | 68 | 1016.5 |
| 20260503130117 | 6 | 203 | 17.7 | 30.6 | 0.13 | 0.33 | 0.23 | 68 | 1016.4 |
| 20260503120137 | 4 | 252 | 12.9 | 24.1 | 0.10 | 0.20 | 0.10 | 75 | 1016.1 |
| 20260503110626 | 0 | 210 | 0.0 | 4.8 | 0.00 | 0.10 | 0.00 | 88 | 1015.8 |
| 20260503110120 | 0 | 210 | 1.6 | 4.8 | 0.00 | 0.10 | 0.00 | 88 | 1015.7 |
| 20260503100134 | -1 | 225 | 3.2 | 6.4 | 0.00 | 0.10 | 0.00 | 88 | 1015.1 |
| 20260503090138 | -1 | 205 | 1.6 | 6.4 | 0.03 | 0.10 | 0.10 | 87 | 1015.0 |
| 20260503081629 | 0 | 239 | 3.2 | 6.4 | 0.00 | 0.08 | 0.08 | 86 | 1014.8 |
| 20260503081141 | 0 | 268 | 0.0 | 6.4 | 0.00 | 0.08 | 0.08 | 86 | 1014.8 |
| 20260503080620 | 0 | 295 | 1.6 | 12.9 | 0.00 | 0.10 | 0.08 | 86 | 1014.8 |
| 20260503080132 | 0 | 297 | 4.8 | 12.9 | 0.00 | 0.10 | 0.08 | 86 | 1014.7 |
| 20260503072622 | 0 | 264 | 0.0 | 8.0 | 0.00 | 0.10 | 0.08 | 84 | 1014.4 |
| 20260503072137 | 1 | 287 | 1.6 | 17.7 | 0.00 | 0.10 | 0.08 | 84 | 1014.4 |
| 20260503071623 | 1 | 253 | 3.2 | 17.7 | 0.00 | 0.10 | 0.08 | 85 | 1014.4 |
| 20260503071118 | 1 | 302 | 1.6 | 19.3 | 0.00 | 0.10 | 0.08 | 85 | 1014.4 |
| 20260503070632 | 0 | 222 | 6.4 | 16.1 | 0.00 | 0.10 | 0.08 | 86 | 1014.4 |
| 20260503070139 | 0 | 291 | 4.8 | 9.7 | 0.00 | 0.10 | 0.08 | 86 | 1014.3 |
| 20260503060122 | 1 | 276 | 1.6 | 3.2 | 0.00 | 0.10 | 0.08 | 84 | 1014.4 |
| 20260503055124 | 1 | 276 | 3.2 | 16.1 | 0.00 | 0.10 | 0.08 | 86 | 1014.4 |
| 20260503054638 | 0 | 285 | 3.2 | 9.7 | 0.00 | 0.10 | 0.08 | 86 | 1014.4 |
| 20260503054133 | 0 | 282 | 1.6 | 8.0 | 0.00 | 0.10 | 0.08 | 86 | 1014.4 |
| 20260503053619 | 0 | 280 | 1.6 | 8.0 | 0.00 | 0.10 | 0.08 | 86 | 1014.4 |
| 20260503053132 | 0 | 258 | 0.0 | 6.4 | 0.00 | 0.10 | 0.08 | 85 | 1014.4 |
| 20260503052622 | 0 | 249 | 1.6 | 6.4 | 0.00 | 0.10 | 0.08 | 85 | 1014.4 |
| 20260503052134 | 0 | 249 | 1.6 | 6.4 | 0.00 | 0.10 | 0.08 | 85 | 1014.5 |
| 20260503051621 | 1 | 245 | 3.2 | 6.4 | 0.00 | 0.10 | 0.08 | 85 | 1014.5 |
| 20260503051157 | 1 | 246 | 3.2 | 6.4 | 0.00 | 0.10 | 0.08 | 85 | 1014.5 |
| 20260503050623 | 1 | 245 | 3.2 | 8.0 | 0.00 | 0.13 | 0.08 | 85 | 1014.6 |
| 20260503050117 | 1 | 246 | 4.8 | 8.0 | 0.00 | 0.13 | 0.08 | 85 | 1014.6 |
| 20260503045633 | 1 | 229 | 4.8 | 8.0 | 0.00 | 0.13 | 0.08 | 85 | 1014.6 |
| 20260503045121 | 1 | 266 | 3.2 | 6.4 | 0.00 | 0.13 | 0.08 | 84 | 1014.7 |
| 20260503044630 | 1 | 266 | 3.2 | 9.7 | 0.00 | 0.13 | 0.08 | 84 | 1014.7 |
| 20260503044123 | 1 | 268 | 1.6 | 9.7 | 0.00 | 0.13 | 0.08 | 83 | 1014.8 |
| 20260503043617 | 1 | 266 | 3.2 | 6.4 | 0.00 | 0.13 | 0.08 | 82 | 1014.8 |
| 20260503043131 | 1 | 273 | 0.0 | 4.8 | 0.00 | 0.13 | 0.08 | 81 | 1014.8 |
| 20260503042628 | 1 | 273 | 1.6 | 4.8 | 0.00 | 0.13 | 0.08 | 81 | 1014.7 |
| 20260503042122 | 2 | 273 | 0.0 | 4.8 | 0.00 | 0.13 | 0.08 | 80 | 1014.8 |
| 20260503041616 | 2 | 273 | 1.6 | 4.8 | 0.00 | 0.13 | 0.08 | 78 | 1014.7 |
| 20260503041131 | 2 | 274 | 1.6 | 9.7 | 0.00 | 0.13 | 0.08 | 78 | 1014.8 |
| 20260503040624 | 2 | 274 | 3.2 | 9.7 | 0.00 | 0.13 | 0.08 | 77 | 1014.8 |
| 20260503040117 | 3 | 297 | 1.6 | 6.4 | 0.00 | 0.13 | 0.08 | 76 | 1014.7 |
| 20260503035626 | 3 | 298 | 1.6 | 6.4 | 0.03 | 0.13 | 0.08 | 76 | 1014.7 |
| 20260503035119 | 3 | 309 | 0.0 | 4.8 | 0.03 | 0.13 | 0.08 | 76 | 1014.7 |
| 20260503034635 | 3 | 309 | 1.6 | 9.7 | 0.03 | 0.13 | 0.08 | 75 | 1014.6 |
| 20260503034124 | 3 | 308 | 4.8 | 16.1 | 0.03 | 0.13 | 0.08 | 75 | 1014.7 |
| 20260503033658 | 3 | 307 | 4.8 | 16.1 | 0.03 | 0.13 | 0.08 | 75 | 1014.7 |
| 20260503033124 | 3 | 306 | 3.2 | 11.3 | 0.03 | 0.13 | 0.08 | 75 | 1014.8 |
| 20260503032639 | 4 | 282 | 3.2 | 14.5 | 0.03 | 0.13 | 0.08 | 75 | 1014.8 |
| 20260503032125 | 4 | 282 | 1.6 | 19.3 | 0.03 | 0.13 | 0.08 | 74 | 1014.9 |
| 20260503031640 | 4 | 268 | 9.7 | 16.1 | 0.03 | 0.13 | 0.08 | 75 | 1014.9 |
| 20260503031136 | 4 | 314 | 6.4 | 16.1 | 0.03 | 0.13 | 0.08 | 75 | 1014.6 |
| 20260503030645 | 5 | 14 | 9.7 | 17.7 | 0.03 | 0.13 | 0.08 | 74 | 1014.5 |
| 20260503030138 | 5 | 360 | 9.7 | 19.3 | 0.03 | 0.13 | 0.08 | 74 | 1014.7 |
| 20260503025624 | 5 | 324 | 6.4 | 19.3 | 0.00 | 0.10 | 0.05 | 75 | 1014.9 |
| 20260503025139 | 5 | 301 | 8.0 | 14.5 | 0.00 | 0.10 | 0.05 | 76 | 1014.9 |
| 20260503024626 | 5 | 281 | 1.6 | 8.0 | 0.00 | 0.10 | 0.05 | 76 | 1014.9 |
| 20260503024138 | 5 | 296 | 0.0 | 16.1 | 0.00 | 0.10 | 0.05 | 76 | 1015.0 |
| 20260503023634 | 5 | 281 | 4.8 | 16.1 | 0.00 | 0.10 | 0.05 | 76 | 1015.1 |
| 20260503023120 | 5 | 304 | 11.3 | 16.1 | 0.00 | 0.10 | 0.05 | 77 | 1015.2 |
| 20260503022657 | 5 | 297 | 6.4 | 16.1 | 0.00 | 0.10 | 0.05 | 77 | 1015.2 |
| 20260503022122 | 5 | 289 | 1.6 | 17.7 | 0.00 | 0.10 | 0.05 | 77 | 1015.1 |
| 20260503021636 | 5 | 303 | 4.8 | 12.9 | 0.00 | 0.10 | 0.05 | 78 | 1015.1 |
| 20260503021124 | 5 | 305 | 3.2 | 14.5 | 0.00 | 0.10 | 0.05 | 78 | 1015.1 |
| 20260503020618 | 5 | 286 | 8.0 | 14.5 | 0.00 | 0.13 | 0.05 | 78 | 1015.0 |
| 20260503020132 | 5 | 297 | 1.6 | 14.5 | 0.00 | 0.13 | 0.05 | 78 | 1015.1 |
| 20260503015642 | 5 | 292 | 11.3 | 14.5 | 0.00 | 0.13 | 0.05 | 78 | 1015.0 |
| 20260503015127 | 5 | 305 | 1.6 | 8.0 | 0.00 | 0.13 | 0.05 | 78 | 1014.9 |
| 20260503014703 | 5 | 298 | 1.6 | 4.8 | 0.00 | 0.13 | 0.05 | 78 | 1014.9 |
| 20260503014144 | 5 | 299 | 1.6 | 6.4 | 0.00 | 0.13 | 0.05 | 78 | 1014.8 |
| 20260503013637 | 5 | 301 | 1.6 | 8.0 | 0.00 | 0.13 | 0.05 | 78 | 1014.8 |
| 20260503013124 | 5 | 299 | 0.0 | 12.9 | 0.00 | 0.13 | 0.05 | 78 | 1014.8 |
| 20260503012638 | 5 | 300 | 4.8 | 11.3 | 0.00 | 0.13 | 0.05 | 78 | 1014.7 |
| 20260503012124 | 5 | 270 | 0.0 | 14.5 | 0.00 | 0.13 | 0.05 | 78 | 1014.7 |
| 20260503011638 | 5 | 270 | 4.8 | 17.7 | 0.00 | 0.13 | 0.05 | 78 | 1014.8 |
| 20260503011125 | 5 | 297 | 9.7 | 17.7 | 0.00 | 0.13 | 0.05 | 78 | 1014.7 |
| 20260503010619 | 5 | 316 | 8.0 | 17.7 | 0.00 | 0.13 | 0.05 | 79 | 1014.5 |
| 20260503010127 | 5 | 287 | 8.0 | 17.7 | 0.00 | 0.13 | 0.05 | 79 | 1014.6 |
| 20260503005622 | 5 | 294 | 8.0 | 17.7 | 0.00 | 0.13 | 0.05 | 80 | 1014.6 |
| 20260503005135 | 5 | 285 | 4.8 | 14.5 | 0.00 | 0.13 | 0.05 | 80 | 1014.5 |
| 20260503004650 | 4 | 304 | 8.0 | 12.9 | 0.00 | 0.13 | 0.05 | 81 | 1014.5 |
| 20260503004125 | 4 | 247 | 1.6 | 4.8 | 0.00 | 0.13 | 0.05 | 81 | 1014.3 |
| 20260503003638 | 5 | 243 | 0.0 | 4.8 | 0.00 | 0.13 | 0.05 | 80 | 1014.3 |
| 20260503003125 | 5 | 243 | 1.6 | 8.0 | 0.00 | 0.13 | 0.05 | 80 | 1014.3 |
| 20260503002640 | 5 | 291 | 0.0 | 11.3 | 0.00 | 0.13 | 0.05 | 80 | 1014.3 |
| 20260503002126 | 5 | 272 | 1.6 | 11.3 | 0.00 | 0.13 | 0.05 | 80 | 1014.2 |
| 20260503001620 | 5 | 306 | 1.6 | 8.0 | 0.00 | 0.13 | 0.05 | 80 | 1014.2 |
| 20260503001137 | 5 | 342 | 1.6 | 8.0 | 0.00 | 0.13 | 0.05 | 80 | 1014.3 |
| 20260503000624 | 5 | 327 | 3.2 | 9.7 | 0.00 | 0.15 | 0.05 | 80 | 1014.3 |
| 20260503000138 | 5 | 328 | 3.2 | 12.9 | 0.00 | 0.15 | 0.05 | 79 | 1014.2 |
| 20260502235626 | 5 | 306 | 4.8 | 14.5 | 0.00 | 0.15 | 0.05 | 79 | 1014.2 |
| 20260502235119 | 5 | 297 | 8.0 | 16.1 | 0.00 | 0.15 | 0.05 | 78 | 1014.3 |
| 20260502234634 | 5 | 302 | 9.7 | 16.1 | 0.00 | 0.15 | 0.05 | 76 | 1014.2 |
| 20260502234122 | 6 | 322 | 8.0 | 19.3 | 0.00 | 0.15 | 0.05 | 74 | 1014.2 |
| 20260502233635 | 6 | 326 | 11.3 | 19.3 | 0.00 | 0.15 | 0.05 | 73 | 1014.0 |
| 20260502233142 | 6 | 282 | 6.4 | 16.1 | 0.00 | 0.15 | 0.05 | 72 | 1013.9 |
| 20260502232657 | 6 | 320 | 11.3 | 24.1 | 0.00 | 0.15 | 0.05 | 72 | 1013.9 |
| 20260502232121 | 6 | 342 | 12.9 | 24.1 | 0.00 | 0.15 | 0.05 | 71 | 1013.8 |
| 20260502231636 | 6 | 311 | 12.9 | 25.7 | 0.00 | 0.15 | 0.05 | 71 | 1013.8 |
| 20260502231125 | 6 | 298 | 14.5 | 25.7 | 0.00 | 0.15 | 0.05 | 70 | 1013.8 |
| 20260502230617 | 6 | 314 | 8.0 | 19.3 | 0.00 | 0.18 | 0.05 | 72 | 1013.8 |
| 20260502230148 | 6 | 296 | 12.9 | 29.0 | 0.00 | 0.18 | 0.05 | 71 | 1013.7 |
| 20260502225623 | 6 | 305 | 14.5 | 29.0 | 0.00 | 0.18 | 0.05 | 71 | 1013.7 |
| 20260502225116 | 6 | 268 | 11.3 | 19.3 | 0.00 | 0.18 | 0.05 | 73 | 1013.7 |
| 20260502224630 | 6 | 318 | 4.8 | 20.9 | 0.00 | 0.18 | 0.05 | 73 | 1013.6 |
| 20260502224145 | 6 | 284 | 14.5 | 24.1 | 0.00 | 0.18 | 0.05 | 72 | 1013.5 |
| 20260502223638 | 7 | 343 | 12.9 | 24.1 | 0.00 | 0.18 | 0.05 | 72 | 1013.6 |
| 20260502223126 | 7 | 308 | 12.9 | 22.5 | 0.00 | 0.18 | 0.05 | 72 | 1013.4 |
| 20260502222623 | 7 | 301 | 14.5 | 20.9 | 0.00 | 0.18 | 0.05 | 70 | 1013.5 |
| 20260502222118 | 7 | 325 | 11.3 | 27.4 | 0.00 | 0.18 | 0.05 | 70 | 1013.4 |
| 20260502221633 | 7 | 274 | 9.7 | 27.4 | 0.00 | 0.18 | 0.05 | 69 | 1013.4 |
| 20260502221141 | 7 | 263 | 8.0 | 19.3 | 0.00 | 0.18 | 0.05 | 69 | 1013.3 |
| 20260502220636 | 7 | 278 | 11.3 | 22.5 | 0.00 | 0.20 | 0.05 | 68 | 1013.3 |
| 20260502220123 | 7 | 309 | 14.5 | 22.5 | 0.00 | 0.20 | 0.05 | 70 | 1013.4 |
| 20260502215620 | 7 | 278 | 12.9 | 22.5 | 0.00 | 0.20 | 0.05 | 72 | 1013.4 |
| 20260502215135 | 7 | 315 | 8.0 | 20.9 | 0.00 | 0.20 | 0.05 | 75 | 1013.4 |
| 20260502214621 | 7 | 272 | 11.3 | 20.9 | 0.00 | 0.20 | 0.05 | 74 | 1013.4 |
| 20260502214158 | 7 | 311 | 16.1 | 24.1 | 0.00 | 0.20 | 0.05 | 72 | 1013.5 |
| 20260502213623 | 7 | 318 | 12.9 | 27.4 | 0.00 | 0.20 | 0.05 | 68 | 1013.4 |
| 20260502213118 | 8 | 309 | 17.7 | 27.4 | 0.00 | 0.20 | 0.05 | 63 | 1013.2 |
| 20260502212635 | 8 | 272 | 16.1 | 24.1 | 0.00 | 0.20 | 0.05 | 61 | 1013.2 |
| 20260502212124 | 8 | 293 | 12.9 | 24.1 | 0.00 | 0.20 | 0.05 | 62 | 1013.0 |
| 20260502211655 | 8 | 251 | 6.4 | 17.7 | 0.00 | 0.20 | 0.05 | 61 | 1013.0 |
| 20260502211121 | 8 | 237 | 9.7 | 16.1 | 0.00 | 0.20 | 0.05 | 61 | 1013.0 |
| 20260502210634 | 8 | 270 | 11.3 | 22.5 | 0.00 | 0.25 | 0.05 | 63 | 1012.9 |
| 20260502210140 | 8 | 320 | 12.9 | 22.5 | 0.00 | 0.25 | 0.05 | 65 | 1012.8 |
| 20260502205636 | 8 | 253 | 4.8 | 27.4 | 0.00 | 0.25 | 0.05 | 66 | 1012.8 |
| 20260502205123 | 8 | 266 | 12.9 | 27.4 | 0.00 | 0.25 | 0.05 | 65 | 1012.9 |
| 20260502204617 | 8 | 299 | 16.1 | 25.7 | 0.00 | 0.25 | 0.05 | 65 | 1012.8 |
| 20260502204134 | 8 | 301 | 16.1 | 27.4 | 0.00 | 0.25 | 0.05 | 62 | 1012.9 |
| 20260502203620 | 8 | 289 | 17.7 | 27.4 | 0.00 | 0.25 | 0.05 | 62 | 1012.9 |
| 20260502203136 | 8 | 266 | 12.9 | 25.7 | 0.00 | 0.25 | 0.05 | 61 | 1012.8 |
| 20260502202643 | 8 | 272 | 4.8 | 22.5 | 0.00 | 0.25 | 0.05 | 62 | 1012.8 |
| 20260502202136 | 8 | 289 | 12.9 | 25.7 | 0.00 | 0.25 | 0.05 | 59 | 1012.7 |
| 20260502201624 | 8 | 311 | 11.3 | 25.7 | 0.00 | 0.25 | 0.05 | 59 | 1012.7 |
| 20260502201140 | 9 | 260 | 11.3 | 22.5 | 0.00 | 0.25 | 0.05 | 58 | 1012.7 |
| 20260502200645 | 9 | 324 | 9.7 | 17.7 | 0.00 | 0.33 | 0.05 | 57 | 1012.7 |
| 20260502200118 | 9 | 266 | 9.7 | 19.3 | 0.00 | 0.33 | 0.05 | 58 | 1012.7 |
| 20260502195635 | 9 | 264 | 4.8 | 20.9 | 0.00 | 0.33 | 0.05 | 62 | 1012.7 |
| 20260502195122 | 9 | 245 | 12.9 | 20.9 | 0.00 | 0.33 | 0.05 | 60 | 1012.9 |
| 20260502194619 | 8 | 246 | 11.3 | 22.5 | 0.00 | 0.33 | 0.05 | 58 | 1012.9 |
| 20260502194134 | 9 | 262 | 12.9 | 22.5 | 0.03 | 0.33 | 0.05 | 59 | 1013.0 |
| 20260502193622 | 9 | 241 | 6.4 | 17.7 | 0.03 | 0.33 | 0.05 | 60 | 1013.1 |
| 20260502193117 | 9 | 311 | 6.4 | 27.4 | 0.03 | 0.33 | 0.05 | 61 | 1013.2 |
| 20260502192650 | 9 | 256 | 12.9 | 27.4 | 0.03 | 0.33 | 0.05 | 59 | 1013.1 |
| 20260502192123 | 9 | 309 | 6.4 | 17.7 | 0.03 | 0.33 | 0.05 | 60 | 1013.1 |
| 20260502191638 | 9 | 21 | 6.4 | 17.7 | 0.03 | 0.33 | 0.05 | 60 | 1013.1 |
| 20260502191127 | 9 | 207 | 0.0 | 9.7 | 0.03 | 0.33 | 0.05 | 56 | 1013.2 |
| 20260502190641 | 9 | 203 | 3.2 | 11.3 | 0.03 | 0.41 | 0.05 | 56 | 1013.2 |
| 20260502190134 | 9 | 235 | 3.2 | 11.3 | 0.03 | 0.41 | 0.05 | 57 | 1013.3 |
| 20260502185644 | 9 | 170 | 3.2 | 12.9 | 0.03 | 0.41 | 0.05 | 58 | 1013.3 |
| 20260502185157 | 9 | 207 | 3.2 | 12.9 | 0.03 | 0.41 | 0.05 | 56 | 1013.3 |